Regional Weather Roundup
Issued by NWS Cleveland, OH

Home | Current Version | Previous Version | Graphics & Text | Print | Product List | Glossary On
Versions: 1 2 3 4 5 6 7 8 9 10 11 12 13 14 15 16 17 18 19 20 21 22 23 24 25 26 27 28 29 30 31 32 33 34 35 36 37 38 39 40 41 42 43 44 45 46 47 48 49 50
000
ASUS41 KCLE 290600
RWRCLE
OHIO REGIONAL WEATHER ROUNDUP
NATIONAL WEATHER SERVICE WILMINGTON, OH
200 AM EDT FRI AUG 29 2014

NOTE: "FAIR" INDICATES FEW OR NO CLOUDS BELOW 12,000 FEET WITH NO
SIGNIFICANT WEATHER AND/OR OBSTRUCTIONS TO VISIBILITY.

OHZ001>008-015>018-024>027-034-035-043-044-290700-
   NORTHWEST OHIO

CITY           SKY/WX    TMP DP  RH WIND       PRES   REMARKS
DEFIANCE       FAIR      61  55  81 E5        30.12S
FINDLAY        FAIR      60  53  77 E6        30.12F
TOLEDO EXPRESS FAIR      59  52  77 CALM      30.14R
TOLEDO METCALF FAIR      58  51  78 SE3       30.15R
LIMA           FAIR      61  56  83 E9        30.12S
$$

OHZ009>014-019>023-028>033-038-089-290700-
   NORTHEAST OHIO

CITY           SKY/WX    TMP DP  RH WIND       PRES   REMARKS
CLE-HOPKINS    FAIR      55  49  80 SE3       30.16F
CLE-LAKEFRONT  FAIR      62  50  64 SE5       30.14F
CUY CO. ARPT   NOT AVBL
LORAIN-ELYRIA  FAIR      53  49  86 SE3       30.15F
ASHTABULA      FAIR      50  48  93 CALM      30.18S
AKRON-CANTON   FAIR      55  49  80 E3        30.15F
WOOSTER        NOT AVBL
MANSFIELD      FAIR      56  50  80 SE3       30.16S
YOUNGSTOWN     FAIR      49  48  97 E3        30.16F
$$

OHZ042-051>053-060>062-070>072-077>081-290700-
  SOUTHWEST OHIO

CITY           SKY/WX    TMP DP  RH WIND       PRES   REMARKS
CINC-COVINGTON MOCLDY    71  60  68 E9        30.08F
CINC-LUNKEN    FAIR      67  63  87 CALM      30.09S
HAMILTON       FAIR      66  63  90 CALM      30.10S
DAYTON         NOT AVBL
WRIGHT-PAT AFB FAIR      66  60  81 E5        30.11S
DAYTON GENERAL FAIR      67  60  78 E8        30.10S
WILMINGTON     FAIR      63  59  87 E5        30.11S
$$

OHZ036-037-039>041-045>050-054>059-063>069-073>076-082>088-290700-
  CENTRAL AND SOUTHEAST OHIO

CITY           SKY/WX    TMP DP  RH WIND       PRES   REMARKS
COLUMBUS       FAIR      64  54  69 E5        30.12S
OSU AIRPORT    FAIR      61  55  81 NE5       30.13S
BOLTON FIELD   NOT AVBL
RICKENBACK AFB NOT AVBL
NEWARK         FAIR      59  54  83 CALM      30.13F
MARION         FAIR      56  52  86 E6        30.13F
LANCASTER      FAIR      61  56  83 NE3       30.13S
ZANESVILLE     FAIR      58  52  80 CALM      30.14S
NEW PHILLY     FAIR      54  53  97 CALM      30.16S FOG
$$



USA.gov is the U.S. government's official web portal to all federal, state and local government web resources and services.